• Em Portugal
  • Lista de países
  • Para 7 dias
  • Temperatura da água
  • Mapas de satélite
  • Mapa do tempo
  • Widgets de tempo
  • user-avatar
    Iniciar Sessão

    Previsão horária em Rîbniţa

    Hoje, 20 Setembro, Quinta-feira

    Tempo Temperatura Precipitação Vento Pressão Humidade
    00:00 +20°C° 0 mm 1 m/s 757 mmHg 53%
    01:00 +19°C° 0 mm 1 m/s 757 mmHg 54%
    02:00 +19°C° 0 mm 1 m/s 757 mmHg 55%
    03:00 +18°C° 0 mm 1 m/s 757 mmHg 56%
    04:00 +18°C° 0 mm 1 m/s 757 mmHg 56%
    05:00 +16°C° 0 mm 0 m/s 757 mmHg 57%
    06:00 +17°C° 0 mm 0 m/s 757 mmHg 54%
    07:00 +18°C° 0 mm 0 m/s 757 mmHg 51%
    08:00 +20°C° 0 mm 0 m/s 757 mmHg 48%
    09:00 +24°C° 0 mm 1 m/s 757 mmHg 43%
    10:00 +25°C° 0 mm 1 m/s 757 mmHg 39%
    11:00 +27°C° 0 mm 2 m/s 757 mmHg 35%
    12:00 +28°C° 0 mm 2 m/s 757 mmHg 33%
    13:00 +28°C° 0 mm 2 m/s 757 mmHg 31%
    14:00 +29°C° 0 mm 1 m/s 756 mmHg 29%
    15:00 +29°C° 0 mm 1 m/s 756 mmHg 31%
    16:00 +28°C° 0 mm 1 m/s 756 mmHg 34%
    17:00 +26°C° 0 mm 0 m/s 756 mmHg 36%
    18:00 +24°C° 0 mm 0 m/s 756 mmHg 38%
    19:00 +22°C° 0 mm 0 m/s 756 mmHg 40%
    20:00 +23°C° 0 mm 1 m/s 756 mmHg 42%
    21:00 +20°C° 0 mm 0 m/s 756 mmHg 43%
    22:00 +20°C° 0 mm 0 m/s 756 mmHg 44%
    23:00 +19°C° 0 mm 0 m/s 756 mmHg 46%

    Amanhã, 21 Setembro, Sexta-feira

    Tempo Temperatura Precipitação Vento Pressão Humidade
    00:00 +19°C° 0 mm 0 m/s 756 mmHg 47%
    01:00 +18°C° 0 mm 0 m/s 756 mmHg 49%
    02:00 +18°C° 0 mm 0 m/s 756 mmHg 50%
    03:00 +18°C° 0 mm 0 m/s 756 mmHg 51%
    04:00 +19°C° 0 mm 1 m/s 756 mmHg 53%
    05:00 +19°C° 0 mm 1 m/s 756 mmHg 54%
    06:00 +20°C° 0 mm 1 m/s 756 mmHg 52%
    07:00 +21°C° 0 mm 1 m/s 756 mmHg 49%
    08:00 +23°C° 0 mm 1 m/s 756 mmHg 47%
    09:00 +25°C° 0 mm 1 m/s 756 mmHg 43%
    10:00 +26°C° 0 mm 2 m/s 756 mmHg 39%
    11:00 +28°C° 0 mm 2 m/s 756 mmHg 34%
    12:00 +29°C° 0 mm 2 m/s 756 mmHg 33%
    13:00 +29°C° 0 mm 2 m/s 755 mmHg 31%
    14:00 +30°C° 0 mm 2 m/s 755 mmHg 29%
    15:00 +29°C° 0 mm 2 m/s 755 mmHg 31%
    16:00 +29°C° 0 mm 2 m/s 754 mmHg 33%
    17:00 +28°C° 0 mm 1 m/s 754 mmHg 35%
    18:00 +27°C° 0 mm 1 m/s 754 mmHg 37%
    19:00 +25°C° 0 mm 1 m/s 754 mmHg 39%
    20:00 +24°C° 0 mm 1 m/s 755 mmHg 41%
    21:00 +23°C° 0 mm 2 m/s 754 mmHg 42%
    22:00 +21°C° 0 mm 2 m/s 754 mmHg 44%
    23:00 +21°C° 0 mm 2 m/s 754 mmHg 46%

    Depois de amanhã, 22 Setembro, Sábado

    Tempo Temperatura Precipitação Vento Pressão Humidade
    00:00 +20°C° 0 mm 2 m/s 754 mmHg 47%
    01:00 +20°C° 0 mm 2 m/s 754 mmHg 49%
    02:00 +19°C° 0 mm 2 m/s 754 mmHg 50%
    03:00 +19°C° 0 mm 2 m/s 754 mmHg 51%
    04:00 +19°C° 0 mm 2 m/s 754 mmHg 52%
    05:00 +18°C° 0 mm 2 m/s 754 mmHg 53%
    06:00 +19°C° 0 mm 2 m/s 754 mmHg 51%
    07:00 +20°C° 0 mm 2 m/s 754 mmHg 49%
    08:00 +23°C° 0 mm 2 m/s 754 mmHg 47%
    09:00 +24°C° 0 mm 3 m/s 754 mmHg 43%
    10:00 +26°C° 0 mm 3 m/s 754 mmHg 38%
    11:00 +28°C° 0 mm 4 m/s 754 mmHg 33%
    12:00 +29°C° 0 mm 4 m/s 753 mmHg 32%
    13:00 +30°C° 0 mm 4 m/s 753 mmHg 30%
    14:00 +30°C° 0 mm 4 m/s 753 mmHg 28%
    15:00 +30°C° 0 mm 3 m/s 752 mmHg 30%
    16:00 +29°C° 0 mm 3 m/s 752 mmHg 33%
    17:00 +28°C° 0 mm 2 m/s 752 mmHg 35%
    18:00 +27°C° 0 mm 2 m/s 752 mmHg 36%
    19:00 +25°C° 0 mm 2 m/s 752 mmHg 38%
    20:00 +24°C° 0 mm 1 m/s 752 mmHg 40%
    21:00 +23°C° 0 mm 2 m/s 752 mmHg 43%
    22:00 +21°C° 0 mm 3 m/s 752 mmHg 47%
    23:00 +20°C° 0 mm 3 m/s 752 mmHg 50%

    23 Setembro, Domingo

    Tempo Temperatura Precipitação Vento Pressão Humidade
    00:00 +19°C° 0 mm 4 m/s 752 mmHg 55%
    01:00 +17°C° 0 mm 5 m/s 752 mmHg 60%
    02:00 +16°C° 0 mm 6 m/s 753 mmHg 65%
    03:00 +15°C° 0 mm 6 m/s 753 mmHg 67%
    04:00 +14°C° 0 mm 6 m/s 753 mmHg 69%
    05:00 +13°C° 0 mm 6 m/s 754 mmHg 71%
    06:00 +13°C° 0.1 mm 6 m/s 754 mmHg 70%
    07:00 +13°C° 0.1 mm 6 m/s 755 mmHg 69%
    08:00 +13°C° 0.1 mm 5 m/s 755 mmHg 69%
    09:00 +14°C° 0 mm 5 m/s 755 mmHg 62%
    10:00 +15°C° 0 mm 5 m/s 756 mmHg 54%
    11:00 +17°C° 0 mm 5 m/s 756 mmHg 47%
    12:00 +19°C° 0 mm 5 m/s 756 mmHg 43%
    13:00 +20°C° 0 mm 5 m/s 755 mmHg 39%
    14:00 +20°C° 0 mm 5 m/s 755 mmHg 35%
    15:00 +20°C° 0 mm 4 m/s 755 mmHg 36%
    16:00 +20°C° 0 mm 3 m/s 755 mmHg 37%
    17:00 +19°C° 0 mm 3 m/s 755 mmHg 38%
    18:00 +18°C° 0 mm 2 m/s 755 mmHg 41%
    19:00 +18°C° 0 mm 1 m/s 755 mmHg 43%
    20:00 +14°C° 0 mm 0 m/s 755 mmHg 46%
    21:00 +15°C° 0 mm 1 m/s 755 mmHg 47%
    22:00 +15°C° 0 mm 1 m/s 755 mmHg 48%
    23:00 +15°C° 0 mm 1 m/s 755 mmHg 48%

    24 Setembro, Segunda-feira

    Tempo Temperatura Precipitação Vento Pressão Humidade
    00:00 +14°C° 0 mm 2 m/s 754 mmHg 48%
    01:00 +13°C° 0 mm 3 m/s 754 mmHg 49%
    02:00 +13°C° 0 mm 3 m/s 753 mmHg 49%
    03:00 +13°C° 0 mm 4 m/s 752 mmHg 48%
    04:00 +13°C° 0 mm 5 m/s 751 mmHg 48%
    05:00 +13°C° 0 mm 6 m/s 751 mmHg 48%
    06:00 +15°C° 0 mm 7 m/s 750 mmHg 49%
    07:00 +16°C° 0 mm 9 m/s 749 mmHg 50%
    08:00 +17°C° 0 mm 10 m/s 748 mmHg 52%
    09:00 +19°C° 0 mm 10 m/s 748 mmHg 51%
    10:00 +22°C° 0 mm 11 m/s 747 mmHg 50%
    11:00 +24°C° 0 mm 11 m/s 746 mmHg 49%
    12:00 +26°C° 0 mm 11 m/s 745 mmHg 48%
    13:00 +27°C° 0 mm 11 m/s 744 mmHg 46%
    14:00 +29°C° 0 mm 11 m/s 743 mmHg 44%
    15:00 +28°C° 0.1 mm 10 m/s 743 mmHg 45%
    16:00 +28°C° 0.1 mm 9 m/s 742 mmHg 45%
    17:00 +28°C° 0.1 mm 8 m/s 742 mmHg 46%
    18:00 +24°C° 1.1 mm 8 m/s 743 mmHg 52%
    19:00 +21°C° 1.1 mm 8 m/s 744 mmHg 57%
    20:00 +17°C° 1.1 mm 8 m/s 745 mmHg 63%
    21:00 +16°C° 0.1 mm 7 m/s 745 mmHg 63%
    22:00 +15°C° 0.1 mm 6 m/s 746 mmHg 63%
    23:00 +14°C° 0.1 mm 5 m/s 746 mmHg 63%

    25 Setembro, Terça-feira

    Tempo Temperatura Precipitação Vento Pressão Humidade
    00:00 +13°C° 0 mm 5 m/s 747 mmHg 62%
    01:00 +13°C° 0 mm 6 m/s 747 mmHg 62%
    02:00 +11°C° 0 mm 6 m/s 747 mmHg 61%
    03:00 +11°C° 0 mm 6 m/s 748 mmHg 60%
    04:00 +11°C° 0 mm 7 m/s 748 mmHg 58%
    05:00 +10°C° 0 mm 7 m/s 748 mmHg 57%
    06:00 +11°C° 0 mm 8 m/s 748 mmHg 56%
    07:00 +11°C° 0 mm 9 m/s 749 mmHg 56%
    08:00 +12°C° 0 mm 10 m/s 749 mmHg 55%
    09:00 +13°C° 0 mm 10 m/s 750 mmHg 52%
    10:00 +13°C° 0 mm 10 m/s 750 mmHg 48%
    11:00 +14°C° 0 mm 10 m/s 751 mmHg 45%
    12:00 +15°C° 0 mm 9 m/s 751 mmHg 44%
    13:00 +15°C° 0 mm 9 m/s 751 mmHg 42%
    14:00 +15°C° 0 mm 9 m/s 751 mmHg 41%
    15:00 +15°C° 0 mm 8 m/s 752 mmHg 42%
    16:00 +14°C° 0 mm 7 m/s 752 mmHg 43%
    17:00 +13°C° 0 mm 6 m/s 752 mmHg 44%
    18:00 +12°C° 0 mm 5 m/s 753 mmHg 47%
    19:00 +11°C° 0 mm 4 m/s 753 mmHg 49%
    20:00 +10°C° 0 mm 3 m/s 754 mmHg 52%
    21:00 +10°C° 0 mm 3 m/s 754 mmHg 54%
    22:00 +8°C° 0 mm 4 m/s 754 mmHg 56%
    23:00 +8°C° 0 mm 4 m/s 755 mmHg 58%
    Mostrar mais